Weather History for Pecs, Hungary

Change the Weather History Date:

Saturday, October 8, 2011

  Actual Average Record
Temperature  
Mean Temperature 48 °F -  
Max Temperature 57 °F 58 °F - ()
Min Temperature 39 °F 43 °F - ()
Degree Days  
Heating Degree Days 17    
Moisture  
Dew Point 40 °F    
Average Humidity 75    
Maximum Humidity 100    
Minimum Humidity 45    
Precipitation  
Precipitation 0.00 in 0.06 in - ()
Sea Level Pressure  
Sea Level Pressure 29.88 in    
Wind  
Wind Speed 9 mph ()    
Max Wind Speed 16 mph    
Max Gust Speed 30 mph    
Visibility 6.4 miles    
Events Rain    
T = Trace of Precipitation, MM = Missing Value Source: Averaged Metar Reports

Daily Weather History Graph

Daily Weather History Graph

Search for Another Location

Airport:

Trip Planner

Search our weather history database for the weather conditions in past years. The results will help you decide how hot, cold, wet, or windy it might be!

Date:

Astronomy

Oct. 08, 2011 Rise Set
Actual Time 6:53 AM CEST 6:14 PM CEST
Civil Twilight 6:23 AM CEST 6:44 PM CEST
Nautical Twilight 5:49 AM CEST 7:19 PM CEST
Astronomical Twilight 5:14 AM CEST 7:53 PM CEST
Moon 4:24 PM CEST (10/8) 3:13 AM CEST (10/8)
Length of Visible Light 12h 20m
Length of Day
11h 20m
Waxing Gibbous, 88% of the Moon is Illuminated
Oct 8
Waxing Gibbous
Oct 12
Full
Oct 20
Last Quarter
Oct 26
New
Nov 2
First Quarter

Hourly Weather History & Observations

Time (CEST) Temp. Windchill Dew Point Humidity Pressure Visibility Wind Dir Wind Speed Gust Speed Precip Events Conditions
12:45 AM 42.8 °F 36.2 °F 41.0 °F 93% 29.86 in 6.2 mi West 12.7 mph - N/A   Overcast
1:45 AM 42.8 °F 35.8 °F 41.0 °F 93% 29.86 in - West 13.8 mph - N/A   Clear
2:00 AM 42 °F - 41 °F 96% 29.89 in 12 mi West 13.4 mph - -   Partly Cloudy
2:45 AM 42.8 °F 36.6 °F 41.0 °F 93% 29.89 in - West 11.5 mph - N/A   Clear
3:45 AM 42.8 °F 36.2 °F 41.0 °F 93% 29.89 in - West 12.7 mph - N/A   Clear
4:45 AM 41.0 °F 34.3 °F 41.0 °F 100% 29.89 in 6.2 mi West 11.5 mph - N/A   Overcast
5:45 AM 41.0 °F 35.2 °F 41.0 °F 100% 29.89 in 5.0 mi West 9.2 mph - N/A   Overcast
6:15 AM 41.0 °F 33.9 °F 39.2 °F 93% 29.89 in 5.0 mi West 12.7 mph - N/A   Mostly Cloudy
6:45 AM 39.2 °F 32.0 °F 39.2 °F 100% 29.89 in 4.3 mi West 11.5 mph - N/A   Mostly Cloudy
7:00 AM - - - N/A% - 3.7 mi West 9.2 mph - N/A   Scattered Clouds
7:15 AM 39.2 °F 32.5 °F 39.2 °F 100% 29.89 in 4.3 mi West 10.4 mph - N/A   Mostly Cloudy
7:45 AM 39.2 °F 34.2 °F 39.2 °F 100% 29.89 in 6.2 mi West 6.9 mph - N/A   Mostly Cloudy
8:00 AM 40 °F - 39 °F 96% 29.92 in 7 mi West 6.7 mph - -   Partly Cloudy
8:13 AM - - - N/A% - 3.7 mi West 9.2 mph - N/A   Scattered Clouds
8:15 AM 41.0 °F 34.7 °F 39.2 °F 93% 29.89 in 6.2 mi West 10.4 mph - N/A   Partly Cloudy
8:45 AM 41.0 °F 34.3 °F 39.2 °F 93% 29.89 in 6.2 mi WNW 11.5 mph - N/A   Partly Cloudy
9:15 AM 42.8 °F 36.6 °F 39.2 °F 87% 29.92 in 6.2 mi WNW 11.5 mph - N/A   Partly Cloudy
9:45 AM 44.6 °F 38.8 °F 39.2 °F 81% 29.92 in 6.2 mi WNW 11.5 mph - N/A   Mostly Cloudy
10:00 AM - - - N/A% - 6.2 mi WNW 11.5 mph - N/A   Scattered Clouds
10:15 AM 44.6 °F 38.1 °F 39.2 °F 81% 29.92 in 6.2 mi West 13.8 mph - N/A   Mostly Cloudy
10:45 AM 46.4 °F 41.9 °F 41.0 °F 81% 29.92 in 6.2 mi West 9.2 mph - N/A   Mostly Cloudy
11:15 AM 48.2 °F - 41.0 °F 76% 29.92 in 6.2 mi West 11.5 mph - N/A   Mostly Cloudy
11:45 AM 50.0 °F - 42.8 °F 76% 29.92 in 6.2 mi West 8.1 mph - N/A   Mostly Cloudy
12:15 PM 51.8 °F - 41.0 °F 67% 29.92 in 6.2 mi WNW 10.4 mph - N/A   Scattered Clouds
12:45 PM 53.6 °F - 42.8 °F 67% 29.89 in 6.2 mi West 8.1 mph - N/A   Partly Cloudy
1:00 PM - - - N/A% - 6.2 mi WNW 10.4 mph - N/A   Scattered Clouds
1:15 PM 55.4 °F - 41.0 °F 58% 29.89 in 6.2 mi West 8.1 mph - N/A   Partly Cloudy
1:45 PM 55.4 °F - 39.2 °F 54% 29.89 in 6.2 mi West 8.1 mph - N/A   Partly Cloudy
2:00 PM 55 °F - 40 °F 45% 29.88 in 47 mi West 8.9 mph - -   Partly Cloudy
2:15 PM 57.2 °F - 39.2 °F 51% 29.86 in 6.2 mi WSW 6.9 mph - N/A   Partly Cloudy
2:45 PM 55.4 °F - 39.2 °F 54% 29.86 in 6.2 mi West 6.9 mph - N/A   Scattered Clouds
3:15 PM 57.2 °F - 37.4 °F 48% 29.86 in 6.2 mi West 6.9 mph - N/A   Mostly Cloudy
3:45 PM 57.2 °F - 37.4 °F 48% 29.86 in 6.2 mi West 4.6 mph - N/A   Mostly Cloudy
4:00 PM - - - N/A% - 6.2 mi West 6.9 mph - N/A   Scattered Clouds
4:15 PM 55.4 °F - 37.4 °F 51% 29.86 in 6.2 mi West 3.5 mph - N/A   Mostly Cloudy
4:45 PM 55.4 °F - 37.4 °F 51% 29.83 in 6.2 mi WSW 4.6 mph - N/A   Mostly Cloudy
5:15 PM 55.4 °F - 39.2 °F 54% 29.83 in - WSW 2.3 mph - N/A   Clear
5:45 PM 53.6 °F - 41.0 °F 62% 29.83 in - SW 2.3 mph - N/A   Clear
6:15 PM 53.6 °F - 42.8 °F 67% 29.83 in - SW 2.3 mph - N/A   Clear
6:45 PM 53.6 °F - 41.0 °F 62% 29.86 in - SW 3.5 mph - N/A   Clear
7:15 PM 51.8 °F - 42.8 °F 71% 29.86 in - West 4.6 mph - N/A   Clear
7:45 PM 50.0 °F - 39.2 °F 66% 29.89 in 6.2 mi NNW 16.1 mph 29.9 mph N/A Rain Light Rain
8:00 PM 49 °F - 40 °F 62% 29.89 in 19 mi NNW 15.7 mph - - Rain Light Rain
8:15 PM 48.2 °F - 39.2 °F 71% 29.89 in 6.2 mi NNW 15.0 mph - N/A Rain Light Rain
8:45 PM 48.2 °F - 39.2 °F 71% 29.89 in - NNW 9.2 mph - N/A   Clear
9:15 PM 46.4 °F 43.5 °F 39.2 °F 76% 29.89 in - NNW 5.8 mph - N/A   Clear
9:45 PM 48.2 °F - 39.2 °F 71% 29.89 in - North 15.0 mph - N/A   Clear
10:45 PM 46.4 °F 41.9 °F 41.0 °F 81% 29.89 in - North 9.2 mph - N/A   Clear
11:45 PM 46.4 °F 41.9 °F 39.2 °F 76% 29.89 in - North 9.2 mph - N/A   Clear